OKEAN-3

Last updated on Sat Aug 15 2026 00:02:07 GMT+0000 (Coordinated Universal Time)

1 21397U 91039A 26226.63006825 .00001837 00000+0 12534-3 0 9998 2 21397 82.5177 183.6987 0014713 145.7205 214.4975 15.05551014888795
UTC large
Height (km)
Speed (km/s)
/
Latitude / Longitude
Inclination (degrees)
Orbital Period (minutes)
Azimuth
Elevation
Range (km)
Doppler Factor

Next 0 passes for location: London (51.5072 / 0.1276)

No passes found over London.
OKEAN-3